OPS 4682 DEB, 14048

Orbit data source: Space-Track

OPS 4682 DEB, 14048 is space debris in LEO originally from a launch on Sat, 03 Apr 1965 UTC launched from the Air Force Western Test Range (AFWTR). Debris objects in space refer to the collection of defunct objects orbiting the Earth. Examples of debris include non-operational satellites, rocket bodies, and fragments generated from explosions, collisions, or faulty payload assembly.

Loading next visibility...
Identifier
14048, 1965-027K
Orbit
LEO
Country
Flag of USUS
Related business
Manufacturer
Unknown
Mission
Spacecraft
Bus & Motor
Unknown
Mass
Unknown
Launch date (UTC)
1965-04-03 (61 years ago)
Launch vehicle
Unknown
Launch site
Air Force Western Test Range (AFWTR)
Object type
Payload
Rocket body
Debris
Shape & HBR
Unknown shape, 0.1 m
Radar Cross Section
Medium (>0.1 m² and <1 m²)

Expand to show TLE details & history
Last TLE update: 1 day ago

TLE from 1 day ago
0 OPS 4682 DEB
1 14048U 65027K   26220.91749840  .00000782  00000-0  25996-2 0  9991
2 14048  90.2509  16.0117 0017502 135.3724  19.1804 12.99257936 60552
Epoch: 2026-08-08T22:01Z
TLE epoch observation values (Epoch: 2026-08-08T22:01:11.861Z)
Latitude
25.40799°
Longitude
-91.5911°
Altitude
1,255.437 km
Speed
7.236 km/s
True Right ascension
13h 04m 31s
True Declination
25° 17' 01"
Sunlit
Object was in daylight at epoch
Visualization orbit readout
Latitude
Unknown
Longitude
Unknown
Altitude
Unknown
Speed
Unknown
Apparent Right ascension
Unknown
Apparent Declination
Unknown
Sunlit
N/A
Visualization observer readout
Local Sidereal Time
15:58:34
Azimuth
Unknown
Elevation
Unknown
Doppler factor
Unknown
Orbital elements
Apogee altitude
1,275.496 km
Perigee altitude
1,248.752 km
Semi-major axis
7,640.261 km
Eccentricity
0.00175
Inclination
90.2509°
RAAN
16.0117°
Arg. of periapsis
135.3724°
True anomaly
19.24643°
Mean anomaly
19.1804°
Eccentric anomaly
19.2134°
Mean motion
3.24998 °/min
Orbital period
110.77 mins
BSTAR
0.0025996
Loading maneuver chart data...
Computing Atmospheric mass density...
Loading historical data...
Loading historical data...
Loading historical data...
Loading historical data...
Loading historical data...
Loading historical data...
Loading historical data...

Documentation

Showing up to 5 results
|